Location: Boiro
(42.6475°N, 8.8834°W)
Time: 22:36:06
(UTC+01:00)

Altair - Pass Details

Date: 03 December 2021
Orbit: 1501 x 1683 km, 47.2° (Epoch: 18 January)

Event Time Altitude Azimuth Distance (km) Brightness Sun altitude
Rises 16:38:54 0° 221° (SW) 4,801 12.3 11.3°
Reaches altitude 10° 16:42:06 10° 218° (SW) 3,793 12.3 10.9°
Maximum altitude 16:51:23 57° 143° (SE) 1,782 8.1 9.7°
Drops below altitude 10° 17:00:22 10° 68° (ENE) 3,681 8.9 8.5°
Sets 17:03:25 0° 64° (ENE) 4,652 9.4 8.0°
